Location: Newark
(43.0000°N, 1.6781°W)
Time: 10:02:32
(UTC+00:00)

Explorer 7 - Pass Details

Date: 19 April 2021
Orbit: 484 x 677 km, 50.3° (Epoch: 07 May)

Event Time Altitude Azimuth Distance (km) Brightness Sun altitude
Rises 18:48:14 0° 193° (SSW) 2,584 10.2 0.2°
Reaches altitude 10° 18:50:57 10° 172° (S) 1,734 9.1 -0.3°
Maximum altitude 18:53:31 17° 131° (SE) 1,392 8.4 -0.7°
Drops below altitude 10° 18:56:10 10° 91° (E) 1,809 8.9 -1.2°
Sets 18:59:06 0° 71° (ENE) 2,751 9.9 -1.7°
